Weather History for Farmington, NM

Change the Weather History Date:

Wednesday, April 16, 2014

  Actual Average Record
Temperature  
Mean Temperature 46 °F -  
Max Temperature 66 °F 64 °F 80 °F (1990)
Min Temperature 27 °F 33 °F 17 °F (1999)
Degree Days  
Heating Degree Days 18    
Moisture  
Dew Point 13 °F    
Average Humidity 25    
Maximum Humidity 43    
Minimum Humidity 5    
Precipitation  
Precipitation 0.00 in - - ()
Sea Level Pressure  
Sea Level Pressure 29.85 in    
Wind  
Wind Speed 9 mph (NNW)    
Max Wind Speed 21 mph    
Max Gust Speed 43 mph    
Visibility 10 miles    
Events      
Averages and records for this station are not official NWS values.
T = Trace of Precipitation, MM = Missing Value Source: NWS Daily Summary

Daily Weather History Graph

Daily Weather History Graph

Search for Another Location

Airport:

Trip Planner

Search our weather history database for the weather conditions in past years. The results will help you decide how hot, cold, wet, or windy it might be!

Date:

Astronomy

Apr. 16, 2014 Rise Set
Actual Time 6:37 AM MDT 7:48 PM MDT
Civil Twilight 6:10 AM MDT 8:15 PM MDT
Nautical Twilight 5:38 AM MDT 8:47 PM MDT
Astronomical Twilight 5:05 AM MDT 9:20 PM MDT
Moon 9:33 PM MDT (4/16) 7:28 AM MDT (4/16)
Length of Visible Light 14h 04m
Length of Day
13h 10m
Full, 98% of the Moon is Illuminated
Apr 16
Full
Apr 22
Last Quarter
Apr 29
New
May 6
First Quarter
May 14
Full

Hourly Weather History & Observations

Time (MDT) Temp. Windchill Dew Point Humidity Pressure Visibility Wind Dir Wind Speed Gust Speed Precip Events Conditions
12:53 AM 35.1 °F 27.4 °F 3.9 °F 27% 29.83 in 10.0 mi NE 10.4 mph - N/A   Clear
1:53 AM 33.1 °F 26.9 °F 3.9 °F 29% 29.83 in 10.0 mi ENE 6.9 mph - N/A   Clear
2:53 AM 30.9 °F 24.3 °F 3.9 °F 32% 29.82 in 10.0 mi ENE 6.9 mph - N/A   Clear
3:53 AM 30.0 °F 25.2 °F 3.9 °F 33% 29.82 in 10.0 mi ENE 4.6 mph - N/A   Clear
4:53 AM 28.9 °F 22.8 °F 6.1 °F 38% 29.83 in 10.0 mi East 5.8 mph - N/A   Clear
5:53 AM 26.1 °F 18.4 °F 3.0 °F 37% 29.84 in 10.0 mi ENE 6.9 mph - N/A   Clear
6:53 AM 27.0 °F 20.5 °F 5.0 °F 39% 29.85 in 10.0 mi East 5.8 mph - N/A   Clear
7:53 AM 37.0 °F 31.6 °F 9.0 °F 31% 29.85 in 10.0 mi ENE 6.9 mph - N/A   Clear
8:53 AM 39.9 °F 35.1 °F 10.0 °F 29% 29.86 in 10.0 mi ESE 6.9 mph - N/A   Clear
9:53 AM 46.0 °F 43.1 °F 10.0 °F 23% 29.88 in 10.0 mi East 5.8 mph - N/A   Clear
10:53 AM 53.1 °F - 7.0 °F 16% 29.86 in 10.0 mi SSW 4.6 mph - N/A   Clear
11:53 AM 60.1 °F - 9.0 °F 13% 29.84 in 10.0 mi WSW 9.2 mph - N/A   Clear
12:53 PM 64.0 °F - 9.0 °F 12% 29.81 in 10.0 mi West 11.5 mph - N/A   Clear
1:53 PM 64.0 °F - 12.9 °F 14% 29.80 in 10.0 mi West 17.3 mph - N/A   Clear
3:53 PM 62.1 °F - 17.1 °F 18% 29.83 in 10.0 mi West 20.7 mph 42.6 mph N/A   Clear
4:53 PM 61.0 °F - 18.0 °F 19% 29.84 in 10.0 mi WNW 19.6 mph 29.9 mph N/A   Mostly Cloudy
5:53 PM 59.0 °F - 21.0 °F 23% 29.86 in 10.0 mi WNW 18.4 mph - N/A   Mostly Cloudy
6:53 PM 57.9 °F - 23.0 °F 26% 29.87 in 10.0 mi WNW 13.8 mph - N/A   Partly Cloudy
7:53 PM 54.0 °F - 23.0 °F 30% 29.87 in 10.0 mi NW 12.7 mph 21.9 mph N/A   Clear
8:53 PM 51.1 °F - 23.0 °F 33% 29.89 in 10.0 mi WNW 8.1 mph - N/A   Clear
9:53 PM 48.0 °F - 23.0 °F 37% 29.90 in 10.0 mi WNW 8.1 mph - N/A   Clear
10:53 PM 44.1 °F 40.1 °F 23.0 °F 43% 29.91 in 10.0 mi NNW 6.9 mph - N/A   Clear
11:53 PM 45.0 °F 41.8 °F 21.9 °F 40% 29.89 in 10.0 mi NNW 5.8 mph - N/A   Clear